Regional Weather Roundup
Issued by NWS Sterling, VA

Home | Current Version | Previous Version | Graphics & Text | Print | Product List | Glossary On
Versions: 1 2 3 4 5 6 7 8 9 10 11 12 13 14 15 16 17 18 19 20 21 22 23 24 25 26 27 28 29 30 31 32 33 34 35 36 37 38 39 40 41 42 43 44 45 46 47 48 49 50
000
ASUS41 KLWX 272111
RWRLWX

REGIONAL WEATHER ROUNDUP
NATIONAL WEATHER SERVICE BALTIMORE MD/WASHINGTON DC
500 PM EDT WED JUL 27 2016

Note: "FAIR" indicates few or no clouds below 12,000 feet
with no significant weather and/or obstructions to visibility.
 TC=TEMPERATURE CELSIUS

 * =Non NWS site. Station does not report precipitation (e.g. rain,
    snow, etc.), thunder, or fog.

DCZ001-MDZ009-015-VAZ040>042-051-053>054-272200-
WASHINGTON METRO

CITY           SKY/WX    TMP DP  RH WIND       PRES   REMARKS
WASHINGTON NAT PTSUNNY   93  68  43 E7        29.90F HX  97
DULLES         FAIR      93  65  39 NW6       29.91F HX  95
ANDREWS AFB    MOSUNNY   91  67  44 E7        29.91S HX  95
FT BELVOIR     FAIR      92  67  42 S7        29.90S HX  96
QUANTICO       FAIR      93  69  45 S7        29.91F HX  98
LEESBURG*      FAIR      95  70  43 SW7       29.93S HX 101
MANASSAS*      PTSUNNY   93  66  40 SE7       29.91S HX  96
GAITHERSBURG*  SUNNY     91  66  43 CALM      29.95F HX  94

$$

MDZ006>007-011-014-272200-
BALTIMORE METRO

CITY           SKY/WX    TMP DP  RH WIND       PRES   REMARKS
BWI AIRPORT    PTSUNNY   95  65  37 VRB5      29.89F HX  97
MD SCIENCE CTR   N/A     95  65  37 MISG      29.89F HX  97
MARTIN STATE   PTSUNNY   90  77  66 SE6       29.91F HX 102
ANNAPOLIS      MOSUNNY   89  71  55 SE8       29.89F HX  95

$$

MDZ012-015-019>023-272200-
MARYLAND EASTERN SHORE

CITY           SKY/WX    TMP DP  RH WIND       PRES   REMARKS
OCEAN CITY     MOSUNNY   87  75  67 SW5       29.90F HX  96
SALISBURY      CLOUDY    85  74  69 SW5       29.90F HX  92
EASTON*        MOSUNNY   91  75  59 N6        29.94F HX 102

$$

MDZ017>025-272200-
SOUTHERN MARYLAND

CITY           SKY/WX    TMP DP  RH WIND       PRES   REMARKS
PATUXENT RIVER LGT RAIN  89  67  47 N7        29.90F HX  92
ST INIGOES     MOSUNNY   90  66  45 NE6       29.90S HX  92
LEONARDTOWN*   NOT AVBL

$$

MDZ003>005-272200-
NORTH CENTRAL MARYLAND

CITY           SKY/WX    TMP DP  RH WIND       PRES   REMARKS
FREDERICK*     MOSUNNY   93  66  40 CALM      29.93F HX  96
HAGERSTOWN APT MOSUNNY   93  61  34 NW7       29.92F HX  93

$$

MDZ501>502-272200-
WESTERN MARYLAND

CITY           SKY/WX    TMP DP  RH WIND       PRES   REMARKS
OAKLAND*       NOT AVBL
CUMBERLAND*    SUNNY     93  63  36 W5        29.96F HX  94

$$

VAZ025>031-272200-
SHENANDOAH VALLEY

CITY           SKY/WX    TMP DP  RH WIND       PRES   REMARKS
WINCHESTER*    FAIR      90  68  48 E6        29.93S HX  93
FRONT ROYAL*   FAIR      88  70  55 SE6       29.91S HX  92
LURAY*         FAIR      90  70  51 S6        29.93F HX  95
NEW MARKET*    FAIR     N/A N/A N/A N10G21    29.93R
STAUNTON*      PTSUNNY   79  75  86 SW7       29.99F
WAYNESBORO*    MOCLDY    78  73  85 SW5       30.00S

$$

WVZ021-048>050-054>055-272200-
EASTERN WEST VIRGINIA PANHANDLE

CITY           SKY/WX    TMP DP  RH WIND       PRES   REMARKS
MARTINSBURG    PTSUNNY   92  63  38 E6        29.91F HX  93
PETERSBURG*    FAIR      95  67  40 W12       29.92F HX  98

$$

VAZ036>039-050-272200-
CENTRAL FOOTHILLS

CITY           SKY/WX    TMP DP  RH WIND       PRES   REMARKS
CHARLOTTESVILL FAIR      84  75  74 SW6       29.94S HX  92
CULPEPER*      FAIR      92  72  52 SW5       29.93S HX  99
ORANGE*          N/A     90  68  48 CALM      29.95S HX  93
GORDONSVILLE*  FAIR      90  73  57 S7        29.93S HX  99
WARRENTON*     FAIR      94  60  32 S6        29.92S HX  94

$$

VAZ055>057-272200-
NORTH AND CENTRAL PIEDMONT

CITY           SKY/WX    TMP DP  RH WIND       PRES   REMARKS
FREDERICKSBRG*   N/A     92  69  47 E3        29.91R HX  96
STAFFORD*      FAIR      93  64  37 W3        29.95S HX  95

$$

NCZ024-NYZ072-PAZ021-071-VAZ022-071-272200-
OTHER REGIONAL OBSERVATIONS

CITY           SKY/WX    TMP DP  RH WIND       PRES   REMARKS
NEW YORK CITY  MOSUNNY   87  63  44 W5        29.92F
PHILADELPHIA   MOSUNNY   92  63  38 VRB3      29.90F HX  93
PITTSBURGH     MOSUNNY   88  59  37 VRB5      29.97F
ROANOKE        TSTM      74  73  97 CALM      30.04R FOG
RICHMOND       PTSUNNY   90  73  57 CALM      29.91S HX  98
RALEIGH        CLOUDY    89  78  70 W5        29.94S HX 103

$$

ANZ530>537-272200-
MARINE OBSERVATIONS

STATION/POSITION TIME  TEMP    WIND        PRES
                       AIR SEA DIR/SP/G
                 (UTC) (F)     (DEG/KT/KT) (MB)
THOMAS PT LIGHT  2100   87 86  110/  4/  5 1013.9F
BALT KEY BRIDGE  2048   87     110/ 11/ 12 1012.2F
COVE POINT       2048   87      30/  8/ 11 1013.1F
LEWISETTA        2048   88 88  100/  6/  7 1012.1F
SOLOMONS ISLAND  2042   88 86   30/  5/  8   N/A
PINEY POINT      2048          150/  6/  7   N/A

$$




USA.gov is the U.S. government's official web portal to all federal, state and local government web resources and services.